Home   Weather   Tuscaloosa   Past weeks

Flag for USA Past Weather in Tuscaloosa, Alabama, USA — Yesterday and Last 2 Weeks

Now
70 °F

Sunny.


Feels Like: 75 °F
Forecast: 49 / 80 °F
Wind: 6 mph from Southwest

Location: Tuscaloosa Municipal Airport

Current Time: Apr 25, 2017 at 11:51:42 am

Latest Report: Apr 25, 2017 at 10:53 am


Visibility: 10 mi

Pressure: 29.81 "Hg

Humidity: 64%

Dew Point: 57 °F

Location of TuscaloosaLocation

Past Weather in Tuscaloosa — Graph

°F

Tuscaloosa Temperature Yesterday

Maximum temperature yesterday: 72 °F (at 4:53 pm)
Minimum temperature yesterday: 52 °F (at 12:53 am)
Average temperature yesterday: 59 °F

High & Low Weather Summary for the Past Weeks

 TemperatureHumidityPressure
High86 °F (Apr 19, 3:53 pm)100% (Apr 12, 9:53 pm)30.27 "Hg (Apr 12, 9:53 pm)
Low50 °F (Apr 25, 4:01 am)35% (Apr 12, 1:53 pm)29.76 "Hg (Apr 24, 6:53 pm)
Average67 °F75%30.06 "Hg
* Reported Apr 10 9:53 am — Apr 25 9:53 am, Tuscaloosa, Weather by CustomWeather, © 2017

Note: Actual official high and low records may vary slightly from our data, if they occured in-between our weather recording intervals... More about our weather records

Advertising

Tuscaloosa Weather History for the Previous 24 Hours

Scroll right to see more
 ConditionsComfort  
Time TempWeatherWind HumidityBarometerVisibility
9:53 am
Tue, Apr 25
64 °FSunny.5 mph75%29.82 "Hg10 mi
8:53 am59 °FSunny.3 mph90%29.83 "Hg10 mi
7:53 am55 °FScattered clouds.No wind96%29.82 "Hg7 mi
6:53 am51 °FSunny.No wind96%29.81 "Hg8 mi
5:53 am50 °FClear.No wind96%29.80 "Hg8 mi
4:53 am50 °FFog.No wind96%29.79 "Hg6 mi
4:39 am50 °FFog.No wind96%29.79 "Hg1 mi
4:25 am50 °FFog.No wind96%29.79 "Hg2 mi
4:16 am50 °FFog.No wind100%29.79 "Hg1 mi
4:01 am50 °FClear.No wind100%29.79 "Hg7 mi
2:53 am52 °FFog.No wind97%29.78 "Hg4 mi
2:06 am52 °FFog.No wind97%29.79 "Hg6 mi
1:30 am51 °FFog.No wind96%29.80 "Hg2 mi
12:53 am54 °FClear.No wind97%29.80 "Hg7 mi
11:53 pm
Mon, Apr 24
55 °FClear.No wind93%29.80 "Hg10 mi
10:53 pm57 °FClear.No wind87%29.80 "Hg10 mi
9:53 pm60 °FClear.3 mph80%29.80 "Hg10 mi
8:53 pm61 °FClear.3 mph78%29.78 "Hg10 mi
7:53 pm64 °FClear.5 mph70%29.77 "Hg10 mi
6:53 pm68 °FSunny.7 mph59%29.76 "Hg10 mi
5:53 pm71 °FScattered clouds.8 mph51%29.76 "Hg10 mi
4:53 pm72 °FScattered clouds.5 mph49%29.77 "Hg10 mi
3:53 pm71 °FSunny.7 mph51%29.78 "Hg10 mi
2:53 pm70 °FPartly sunny.12 mph55%29.81 "Hg10 mi
1:53 pm68 °FOvercast.10 mph57%29.83 "Hg10 mi
12:53 pm66 °FOvercast.7 mph59%29.85 "Hg10 mi
11:53 am65 °FMore clouds than sun.No wind59%29.85 "Hg10 mi
11:21 am63 °FPartly sunny.7 mph65%29.85 "Hg10 mi
Weather by CustomWeather, © 2017

See weather overviewHow to use our weather pages